Location: Tuebingen alte Sternwarte
(48.5376°N, 9.0555°E)
Time: 01:47:44
(UTC+02:00)

Envisat - Visible Passes

Search period start: 24 September 2017 00:00
Search period end: 04 October 2017 00:00
Orbit: 764 x 766 km, 98.2° (Epoch: 23 September)

Date Brightness Start Highest point End Pass type
(mag) Time Alt. Az. Time Alt. Az. Time Alt. Az.
24 Sep 3.5 20:17:32 10° SE 20:22:13 39° ENE 20:26:56 10° N visible
24 Sep 4.6 21:57:21 13° SSW 22:01:19 31° W 22:05:51 10° NNW visible
25 Sep 4.3 19:42:05 10° ESE 19:45:50 21° ENE 19:49:36 10° NNE visible
25 Sep 3.3 21:20:22 16° S 21:24:25 64° WSW 21:29:29 10° NNW visible
26 Sep 3.0 20:43:23 14° SSE 20:47:43 64° ENE 20:52:45 10° N visible
26 Sep 5.3 22:23:36 10° SW 22:27:11 19° W 22:30:49 10° NW visible
27 Sep 3.8 20:06:43 10° SE 20:11:12 33° ENE 20:15:42 10° N visible
27 Sep 4.2 21:46:37 17° SSW 21:50:08 39° W 21:54:54 10° NNW visible
28 Sep 3.0 21:09:39 19° S 21:13:18 79° WSW 21:18:25 10° NNW visible
28 Sep 5.8 22:51:34 10° WSW 22:53:09 11° W 22:54:45 10° WNW visible
29 Sep 3.2 20:32:40 15° SE 20:36:39 52° ENE 20:41:35 10° N visible
29 Sep 5.0 22:12:53 14° SW 22:15:58 24° W 22:20:02 10° NW visible
30 Sep 4.0 19:55:58 10° ESE 20:00:11 27° ENE 20:04:26 10° N visible
30 Sep 3.8 21:35:55 22° SSW 21:38:58 48° W 21:43:54 10° NNW visible
01 Oct 2.9 20:58:56 23° SSE 21:02:12 85° ENE 21:07:18 10° NNW visible
01 Oct 5.6 22:39:11 10° WSW 22:41:53 14° W 22:44:37 10° NW visible
02 Oct 3.4 20:21:58 16° SE 20:25:36 43° ENE 20:30:23 10° N visible
02 Oct 4.7 22:02:11 19° SW 22:04:45 29° W 22:09:11 10° NW visible
03 Oct 4.2 19:45:18 10° ESE 19:49:11 23° ENE 19:53:07 10° N visible
03 Oct 3.4 21:25:13 28° S 21:27:50 59° W 21:32:52 10° NNW visible
